This is the latest recevied weather packets stored in our database for station/object KY4LEX. If no packets are shown the sender has not sent any weather packets the latest 10 day(s).
| Time | Temp. | Humidity | Pressure | Rain* | Wind** | Luminosity | Snow |
|---|---|---|---|---|---|---|---|
| 1778152935 | 7.22° C | 85% | 1020.5 hPa | 0 mm | - | 20 W/m² | - |
| 1778152633 | 6.67° C | 90% | 1020.6 hPa | 0 mm | - | 18 W/m² | - |
| 1778152330 | 6.67° C | 93% | 1020.5 hPa | 0 mm | - | 16 W/m² | - |
| 1778152025 | 6.11° C | 94% | 1020.5 hPa | 0 mm | - | 14 W/m² | - |
| 1778151722 | 6.11° C | 95% | 1020.2 hPa | 0 mm | - | 12 W/m² | - |
| 1778151419 | 6.11° C | 95% | 1020.1 hPa | 0 mm | - | 10 W/m² | - |
| 1778151115 | 6.11° C | 95% | 1020 hPa | 0 mm | - | 7 W/m² | - |
| 1778150813 | 5.56° C | 95% | 1020.1 hPa | 0 mm | - | 6 W/m² | - |
| 1778150509 | 6.11° C | 95% | 1020 hPa | 0 mm | - | 4 W/m² | - |
| 1778150205 | 6.11° C | 95% | 1020.2 hPa | 0 mm | - | 2 W/m² | - |
| 1778149902 | 5.56° C | 95% | 1020 hPa | 0 mm | - | 1 W/m² | - |
| 1778149598 | 5.56° C | 95% | 1019.8 hPa | 0 mm | - | 1 W/m² | - |
| 1778149294 | 6.11° C | 95% | 1020.1 hPa | 0 mm | - | 0 W/m² | - |
| 1778148991 | 6.11° C | 94% | 1019.9 hPa | 0 mm | - | 0 W/m² | - |
| 1778148686 | 6.11° C | 94% | 1020 hPa | 0 mm | - | 0 W/m² | - |
| 1778148384 | 6.11° C | 94% | 1020.1 hPa | 0 mm | - | 0 W/m² | - |
| 1778148082 | 6.11° C | 94% | 1020.1 hPa | 0 mm | - | 0 W/m² | - |
| 1778147780 | 6.11° C | 94% | 1019.9 hPa | 0 mm | - | 0 W/m² | - |
| 1778147476 | 6.11° C | 93% | 1020.1 hPa | 0 mm | - | 0 W/m² | - |
| 1778147172 | 6.11° C | 93% | 1019.9 hPa | 0 mm | - | 0 W/m² | - |
| 1778146869 | 6.67° C | 93% | 1019.9 hPa | 0 mm | - | 0 W/m² | - |
| 1778146567 | 6.67° C | 92% | 1020 hPa | 0 mm | - | 0 W/m² | - |
| 1778146265 | 6.67° C | 92% | 1020 hPa | 0 mm | - | 0 W/m² | - |
| 1778145961 | 6.67° C | 91% | 1019.9 hPa | 0 mm | - | 0 W/m² | - |
| 1778145658 | 6.67° C | 90% | 1019.8 hPa | 0 mm | - | 0 W/m² | - |
* Rain latest hour (hover to see other rain measurements)
** Current wind speed in m/s (hover to see current wind gust speed)